星链-2151 (STARLINK-2151 )

导读 | 豆包AI

STARLINK-2151是美国于2021年5月15日发射的星链卫星,归属于SpaceX星链低轨互联网星座项目,该项目旨在为全球提供高速卫星互联网服务。星链卫星部署在近地轨道,这颗卫星和后续组网卫星一同,逐步搭建覆盖全球的卫星通信网络,推动卫星互联网服务落地。

Basic Information
目录编号:
48556
目录名称:
STARLINK-2151
国际标识:
2021-041D
轨道中心:
EARTH
卫星名称:
星链-2151
卫星全名:
星链-2151 (STARLINK-2151 )
卫星状态:
在轨 (已飞行1811 天)
发射日期:
2021-05-15 UTC
国别 :
美国 (US)
星等 :
--
Orbit Information
数据来源 国际轨道数据 AOE轨道数据
星历时间 2026-04-30T02:39:51+0800
18小时前
查看轨道信息
2026-04-30T15:00:00+0800
6小时前
查看轨道信息
半长轴 6848.882km 6848.862km
偏心率 0.0001405 0.0001478
轨道倾角 53.160° 53.160°
近地点辐角 89.038° 76.092°
升交点赤经 264.947° 262.557°
平近点角 271.079° 239.830°
近地点 469.782km 469.712km
远地点 471.708km 471.738km
周期 94.013分钟 94.013分钟
每日圈数 15.316984 15.317051
Detailed Information
固有亮度:
5
最大亮度:
2.5
卫星平台:
Starlink V1.0
覆盖范围:
全球
运营商:
太空探索技术公司
运营商所在国:
美国
制造商(研发单位):
太空探索技术公司
制造商所在国:
美国
使用方式:
暂无
Satellite Introduction
星链(Starlink)计划是由太空探索技术公司(SpaceX)提出的一个巨型低轨卫星互联网星座项目,计划在2019年至2024年间在太空搭建由约1.2万颗卫星组成的“星链”网络,其中1584颗将部署在地球上空550千米处的近地轨道,并从2020年开始工作。该卫星仍在工作。
2D Orbit Map
3D Orbit Map
Orbit Altitude Analysis Chart
Orbit Inclination Analysis Chart
Orbit Comprehensive Analysis Chart
View Comprehensive Chart